GW7006 Weather Reports


time (UTC)temp
F
wind
direction
speed
knots
gust
knots
rain 1hr
in
rain 24hr
in
rain mn
in
humidity
%
barometer
mb
20260831053041 70 153 0.0 2.6 0.00 0.00 0.00 49 1027.7
20260831051521 69 221 0.9 5.2 0.00 0.00 0.00 51 1027.8
20260831050014 70 252 0.9 2.6 0.00 0.00 0.00 51 1027.7
20260831044602 70 178 0.0 4.3 0.00 0.00 0.00 51 1027.7
20260831043050 69 252 0.0 4.3 0.00 0.00 0.00 54 1027.9
20260831041526 69 255 0.9 6.1 0.00 0.00 0.00 53 1028.1
20260831040011 68 263 0.9 7.8 0.00 0.00 0.00 56 1028.2
20260831034556 68 107 0.9 5.2 0.00 0.00 0.00 55 1028.4
20260831033049 68 113 0.0 4.3 0.00 0.00 0.00 52 1028.6
20260831031540 67 233 1.7 4.3 0.00 0.00 0.00 57 1028.6
20260831030027 67 224 0.9 4.3 0.00 0.00 0.00 57 1028.9
20260831024524 67 309 0.9 3.5 0.00 0.00 0.00 57 1029.1
20260831023001 66 181 0.9 4.3 0.00 0.00 0.00 57 1029.5
20260831021546 66 220 0.9 3.5 0.00 0.00 0.00 59 1029.8
20260831020039 66 173 0.9 3.5 0.00 0.00 0.00 62 1030.0
20260831014525 66 164 0.9 3.5 0.00 0.00 0.00 61 1030.1
20260831013035 66 153 1.7 4.3 0.00 0.00 0.00 60 1030.1
20260831011555 66 227 1.7 3.5 0.00 0.00 0.00 61 1030.0
20260831010038 65 198 0.9 3.5 0.00 0.00 0.00 61 1030.0
20260831004531 65 196 1.7 4.3 0.00 0.00 0.00 60 1030.1
20260831003021 64 230 0.9 3.5 0.00 0.00 0.00 62 1030.1
20260831001601 63 214 0.9 2.6 0.00 0.00 0.00 59 1030.1
20260831000050 62 174 0.0 0.0 0.00 0.00 0.00 63 1030.2
20260830234536 61 340 0.0 0.0 0.00 0.00 0.00 63 1030.4
20260830233022 60 27 0.0 0.0 0.00 0.00 0.00 66 1030.3
20260830231517 58 148 0.0 0.0 0.00 0.00 0.00 69 1030.2
20260830230001 58 285 0.0 0.9 0.00 0.00 0.00 73 1030.4
20260830224506 56 290 0.0 0.9 0.00 0.00 0.00 75 1030.3
20260830223047 55 290 0.0 0.9 0.00 0.00 0.00 75 1030.4
20260830221527 54 290 0.0 0.9 0.00 0.00 0.00 77 1030.1
20260830220021 51 294 0.9 0.9 0.00 0.00 0.00 86 1030.1
20260830214518 47 15 0.0 0.0 0.00 0.00 0.00 95 1030.0
20260830213004 45 15 0.0 0.0 0.00 0.00 0.00 95 1029.9
20260830211603 44 15 0.0 0.0 0.00 0.00 0.00 95 1029.9
20260830210110 44 15 0.0 0.0 0.00 0.00 0.00 95 1029.9
20260830204609 43 15 0.0 0.0 0.00 0.00 0.00 92 1029.7
20260830203052 43 15 0.0 0.0 0.00 0.00 0.00 91 1029.6
20260830201550 43 15 0.0 0.0 0.00 0.00 0.00 92 1029.6
20260830200105 42 15 0.0 0.0 0.00 0.00 0.00 91 1029.5
20260830194556 42 15 0.0 0.0 0.00 0.00 0.00 90 1029.2
20260830193039 42 15 0.0 0.0 0.00 0.00 0.00 89 1029.1
20260830191529 42 15 0.0 0.0 0.00 0.00 0.00 87 1029.2
20260830190033 43 15 0.0 0.0 0.00 0.00 0.00 87 1029.2
20260830184529 43 15 0.0 0.0 0.00 0.00 0.00 87 1029.3
20260830183026 44 15 0.0 0.0 0.00 0.00 0.00 86 1029.3
20260830181531 44 15 0.0 0.0 0.00 0.00 0.00 85 1029.3
20260830180025 44 15 0.0 0.0 0.00 0.00 0.00 85 1029.4
20260830174521 44 15 0.0 0.0 0.00 0.00 0.00 85 1029.3
20260830173016 45 15 0.0 0.9 0.00 0.00 0.00 84 1029.5
20260830171603 45 235 0.0 0.0 0.00 0.00 0.00 84 1029.4
20260830170010 44 234 0.0 0.0 0.00 0.00 0.00 84 1029.5
20260830164603 44 234 0.0 0.0 0.00 0.00 0.00 85 1029.5
20260830163059 43 235 0.0 0.0 0.00 0.00 0.00 84 1029.5
20260830161601 44 234 0.0 0.0 0.00 0.00 0.00 83 1029.5
20260830160035 45 234 0.0 0.0 0.00 0.00 0.00 83 1029.6
20260830154525 44 234 0.0 0.0 0.00 0.00 0.00 83 1029.7
20260830153039 45 234 0.0 0.0 0.00 0.00 0.00 80 1029.8
20260830151507 46 234 0.0 0.0 0.00 0.00 0.00 81 1029.9
20260830150112 46 234 0.0 0.0 0.00 0.00 0.00 81 1029.9
20260830144603 46 235 0.0 0.0 0.00 0.00 0.00 81 1030.0
20260830143048 46 234 0.0 0.0 0.00 0.00 0.00 83 1029.9
20260830141529 46 234 0.0 0.0 0.00 0.00 0.00 83 1029.8
20260830140014 46 234 0.0 0.0 0.00 0.00 0.00 84 1029.8
20260830134511 46 235 0.0 0.0 0.00 0.00 0.00 83 1029.9
20260830133004 47 235 0.0 0.0 0.00 0.00 0.00 83 1030.0
20260830131625 47 235 0.0 0.0 0.00 0.00 0.00 84 1030.0
20260830130100 47 235 0.0 0.0 0.00 0.00 0.00 83 1030.0
20260830124551 47 235 0.0 0.0 0.00 0.00 0.00 82 1029.9
20260830123045 48 234 0.0 0.0 0.00 0.00 0.00 81 1030.1
20260830121552 47 235 0.0 0.0 0.00 0.00 0.00 81 1029.9
20260830120048 48 234 0.0 0.0 0.00 0.00 0.00 80 1030.1
20260830114547 49 234 0.0 0.0 0.00 0.00 0.00 78 1030.1
20260830113038 49 234 0.0 0.0 0.00 0.00 0.00 78 1030.1
20260830111530 49 235 0.0 0.0 0.00 0.00 0.00 78 1030.0
20260830110022 49 234 0.0 0.0 0.00 0.00 0.00 79 1029.9
20260830104524 51 234 0.0 0.0 0.00 0.00 0.00 78 1029.9
20260830103025 51 235 0.0 0.0 0.00 0.00 0.00 77 1029.8
20260830101520 51 234 0.0 0.0 0.00 0.00 0.00 78 1029.7
20260830100023 53 234 0.0 0.0 0.00 0.00 0.00 76 1029.6
20260830094530 52 229 0.0 0.0 0.00 0.00 0.00 77 1029.6
20260830093025 52 229 0.0 0.0 0.00 0.00 0.00 74 1029.7
20260830091542 53 228 0.0 0.0 0.00 0.00 0.00 71 1029.2
20260830090024 54 228 0.0 0.0 0.00 0.00 0.00 67 1029.1
20260830084509 52 172 0.0 0.0 0.00 0.00 0.00 71 1028.8
20260830083001 52 172 0.0 0.0 0.00 0.00 0.00 72 1028.7
20260830081558 52 172 0.0 0.0 0.00 0.00 0.00 72 1028.5
20260830080057 54 172 0.0 0.0 0.00 0.00 0.00 67 1028.3
20260830074559 57 172 0.0 0.0 0.00 0.00 0.00 64 1028.4
20260830073035 59 172 0.0 0.0 0.00 0.00 0.00 62 1028.5
20260830071538 61 172 0.0 0.0 0.00 0.00 0.00 57 1028.4
20260830070039 65 172 0.0 0.0 0.00 0.00 0.00 51 1028.2
20260830064517 69 172 0.0 0.0 0.00 0.00 0.00 44 1028.2
20260830063002 68 154 0.0 1.7 0.00 0.00 0.00 41 1028.1
20260830061553 68 262 0.0 1.7 0.00 0.00 0.00 44 1028.0
20260830060034 67 96 0.0 5.2 0.00 0.00 0.00 43 1028.1
20260830054521 68 333 0.0 3.5 0.00 0.00 0.00 42 1028.1